Campo, CA

2:27 PM PDT on October 23, 2017 (GMT -0700)
Campo

Weather History for KCZZ - November, 2013

Change the Weather History Date:

Saturday, November 9, 2013

  Actual Average Record
Temperature  
Mean Temperature 56 °F 55 °F  
Max Temperature 77 °F 72 °F 84 °F (1955)
Min Temperature 34 °F 38 °F 25 °F (2000)
Degree Days  
Heating Degree Days 9 10  
Month to date heating degree days 94 83  
Since 1 July heating degree days 377 293  
Cooling Degree Days 0 0  
Month to date cooling degree days 0 0  
Year to date cooling degree days 909 839  
Growing Degree Days 6 (Base 50)    
Moisture  
Dew Point 16 °F    
Average Humidity 27    
Maximum Humidity 48    
Minimum Humidity 5    
Precipitation  
Precipitation 0.00 in 0.03 in 0.29 in (1998)
Month to date precipitation 0.00 0.25  
Year to date precipitation 7.62 12.58  
Since 1 July precipitation 2.84  
Snow  
Snow 0.00 in - - ()
Month to date snowfall 0.0  
Year to date snowfall 0.0  
Snow Depth 0.00 in    
Sea Level Pressure  
Sea Level Pressure 30.00 in    
Wind  
Wind Speed 6 mph (NE)    
Max Wind Speed 16 mph    
Max Gust Speed 21 mph    
T = Trace of Precipitation, MM = Missing Value Source: NWS Daily Summary

Daily Weather History Graph

Daily Weather History Graph

Search for Another Location

Airport or City:

Trip Planner

Search our weather history database for the weather conditions in past years. The results will help you decide how hot, cold, wet, or windy it might be!

Date:

Astronomy

Nov. 09, 2013 Rise Set
Actual Time 6:10 AM PST 4:48 PM PST
Civil Twilight 5:44 AM PST 5:14 PM PST
Nautical Twilight 5:15 AM PST 5:43 PM PST
Astronomical Twilight 4:46 AM PST 6:12 PM PST
Moon 11:54 AM PST (11/9) 11:18 PM PST (11/9)
Length of Visible Light 11h 29m
Length of Day
10h 37m
Waxing Crescent, 45% of the Moon is Illuminated
Nov 9
Waxing Crescent
Nov 9
First Quarter
Nov 17
Full
Nov 25
Last Quarter
Dec 2
New

Hourly Weather History & Observations

Time (PST) Temp. Windchill Dew Point Humidity Pressure Visibility Wind Dir Wind Speed Gust Speed Precip Events Conditions
12:52 AM 39.9 °F 35.1 °F 21.9 °F 49% 29.96 in - NE 6.9 mph - N/A   Unknown
1:52 AM 39.0 °F 34.8 °F 21.9 °F 50% 29.96 in - NE 5.8 mph - N/A   Unknown
2:52 AM 37.9 °F 33.5 °F 19.9 °F 48% 29.97 in - NE 5.8 mph - N/A   Unknown
3:52 AM 37.9 °F 32.7 °F 19.9 °F 48% 29.98 in - NE 6.9 mph - N/A   Unknown
4:52 AM 39.0 °F 34.8 °F 18.0 °F 43% 29.99 in - NE 5.8 mph - N/A   Unknown
5:52 AM 37.9 °F 32.7 °F 18.0 °F 45% 30.02 in - NE 6.9 mph - N/A   Unknown
6:52 AM 39.0 °F 34.8 °F 17.1 °F 41% 30.04 in - NE 5.8 mph - N/A   Unknown
7:52 AM 53.1 °F - 19.9 °F 27% 30.03 in - Calm Calm - N/A   Unknown
8:52 AM 64.9 °F - 19.0 °F 17% 30.02 in - Calm Calm - N/A   Unknown
9:52 AM 72.0 °F - 10.0 °F 9% 30.01 in - Calm Calm - N/A   Unknown
10:52 AM 73.9 °F - -0.0 °F 5% 30.00 in - SW 8.1 mph - N/A   Unknown
11:52 AM 75.0 °F - 3.9 °F 6% 29.98 in - SSW 10.4 mph - N/A   Unknown
12:52 PM 75.9 °F - 1.0 °F 5% 29.96 in - SSW 8.1 mph - N/A   Unknown
1:52 PM 75.9 °F - 1.0 °F 5% 29.95 in - SSW 10.4 mph - N/A   Unknown
2:52 PM 73.9 °F - 6.1 °F 7% 29.96 in - WSW 11.5 mph - N/A   Unknown
3:52 PM 71.1 °F - 19.9 °F 14% 29.97 in - SW 9.2 mph - N/A   Unknown
4:52 PM 64.0 °F - 21.9 °F 20% 29.99 in - SSW 4.6 mph - N/A   Unknown
5:52 PM 52.0 °F - 21.9 °F 31% 30.03 in - NNE 5.8 mph - N/A   Unknown
6:52 PM 50.0 °F - 19.9 °F 31% 30.06 in - NE 5.8 mph - N/A   Unknown
7:52 PM 43.0 °F 39.5 °F 19.9 °F 40% 30.07 in - NE 5.8 mph - N/A   Unknown
8:52 PM 44.1 °F 40.1 °F 19.9 °F 38% 30.05 in - ENE 6.9 mph - N/A   Unknown
9:52 PM 45.0 °F 42.6 °F 21.0 °F 39% 30.05 in - NE 4.6 mph - N/A   Unknown
10:52 PM 42.1 °F - 19.9 °F 41% 30.03 in - Calm Calm - N/A   Unknown
11:52 PM 44.1 °F 42.5 °F 21.0 °F 40% 30.02 in - NE 3.5 mph - N/A   Unknown